Torna al catalogo

COSMOS 1639

AttivoMilitareLEO
NORAD 15621·PAYLOAD·🇷🇺 Russia

Lanciato Mar 21, 1985 da Plesetsk Cosmodrome

Loading…

Prossimi Passaggi (prossime 24 ore)

TLE

AggiornatoSource: Space-Track

Epoca: Sep 14, 2026, 07:24 UTC

1 15621U 85023E   26257.30860294 -.00000019  00000-0 -20447-4 0  9990
2 15621  74.0548 209.0114 0025807 300.5745 212.9410 12.51059576894650

Traccia COSMOS 1639 in tempo reale con AllMySat

Download on the App Store